Content
SEND FEEDBACK

Daily
Averages
Monthly
Summary
United States of America

JULIAN, CALIFORNIA


Home > North America > United States > California
Elevation: 366 feet     Latitude: 33 06N     Longitude: 116 39W

WEATHER
 
SELECT A DAY
Number of Records: 190,660;   Date Range: 8/13/98 - 10/23/14
 
SHARE

PRINT THIS DATA

[ ← Previous Day ]
WEATHER ALMANAC - FEBRUARY 5, 2013
[ Next Day → ]
[ °C ]   °F
Weather ElementAverageHighLow
Temperature45.9 °F55.9 °F (1:53 pm)33.8 °F (6:07 am)
Dewpoint44.2 °F48.9 °F (12:53 pm)32 °F (6:48 am)
Humidity94.2 %100 % (1:53 am)77 % (1:51 pm)
Barometer30.03 in30.09 in (8:18 am)29.98 in (2:53 pm)
Wind Speed3.3 mph11.5 mph (10:53 am)
Weather ElementAverage
Visibility2.6 mi
Wind DirectionSE (138.2 °)

Weather ElementTotal
Precipitation---
Heating Degree Days20.2 (Base 65)
Averaged from 56 records on February 5, 2013
WEATHER CONDITIONS BREAKOUT
WIND DIRECTION BREAKOUT
WEATHER BY HOUR - FEBRUARY 5, 2013
[ °C ]   °F
Local TimeTemperatureDewpointHumidityBarometerVisibilityWind DirectionWind SpeedGust SpeedPrecipitationEventsConditions
1:53 AM43.0 °F43.0 °F100 %30.03 in0.2 miCalmFogFog
2:53 AM43.0 °F43.0 °F100 %30.02 in0.2 miCalmFogFog
3:53 AM39.0 °F39.0 °F100 %30.01 in0.2 miCalmFogFog
4:53 AM37.0 °F36.0 °F96 %30.00 in0.2 miCalmFogFog
5:08 AM37.4 °F37.4 °F100 %30.00 in0.5 miESE (110°)3.5 mphFogFog
5:30 AM35.6 °F35.6 °F100 %30.00 in0.2 miCalmFogFog
5:37 AM35.6 °F35.6 °F100 %30.01 in1.0 miCalmMist
5:53 AM35.1 °F35.1 °F100 %30.01 in0.5 miCalmFogFog
6:07 AM33.8 °F33.8 °F100 %30.01 in0.8 miESE (110°)3.5 mphMist
6:19 AM33.8 °F33.8 °F100 %30.01 in1.0 miCalmClear
6:27 AM35.6 °F33.8 °F93 %30.01 in2.0 miCalmClear
6:48 AM33.8 °F32.0 °F93 %30.03 in1.0 miWNW (290°)4.6 mphMist
6:53 AM34.0 °F33.1 °F96 %30.03 in0.8 miCalmMist
6:56 AM33.8 °F33.8 °F100 %30.03 in1.2 miCalmMostly Cloudy
7:07 AM35.6 °F35.6 °F100 %30.03 in0.8 miWest (270°)3.5 mphMist
7:15 AM37.4 °F37.4 °F100 %30.04 in0.2 miWest (270°)3.5 mphFogFog
7:53 AM43.0 °F43.0 °F100 %30.08 in0.2 miSouth (190°)5.8 mphFogFog
8:18 AM44.6 °F44.6 °F100 %30.09 in0.8 miSSE (160°)3.5 mphOvercast
8:53 AM46.0 °F46.0 °F100 %30.09 in1.5 miEast (80°)6.9 mphOvercast
9:10 AM46.4 °F46.4 °F100 %30.09 in2.0 miEast (90°)5.8 mphOvercast
9:16 AM46.4 °F46.4 °F100 %30.09 in1.0 miEast (80°)3.5 mphOvercast
9:22 AM46.4 °F46.4 °F100 %30.09 in0.2 miVariable4.6 mphFogFog
9:33 AM46.4 °F46.4 °F100 %30.09 in0.8 miESE (110°)3.5 mphOvercast
9:41 AM46.4 °F46.4 °F100 %30.09 in1.2 miCalmOvercast
9:53 AM48.0 °F46.9 °F96 %30.09 in2.5 miCalmOvercast
10:01 AM48.2 °F46.4 °F93 %30.09 in3.0 miCalmOvercast
10:14 AM48.2 °F48.2 °F100 %30.09 in5.0 miWest (280°)4.6 mphScattered Clouds
10:53 AM51.1 °F48.0 °F89 %30.08 in7.0 miWNW (290°)11.5 mphMostly Cloudy
11:20 AM51.8 °F48.2 °F88 %30.09 in5.0 miWNW (300°)9.2 mphOvercast
11:53 AM51.1 °F48.0 °F89 %30.06 in4.0 miNW (320°)6.9 mphOvercast
12:09 PM53.6 °F48.2 °F82 %30.05 in5.0 miWNW (300°)3.5 mphOvercast
12:17 PM53.6 °F48.2 °F82 %30.04 in6.0 miCalmOvercast
12:53 PM53.1 °F48.9 °F86 %30.01 in5.0 miWest (280°)5.8 mphOvercast
1:51 PM55.4 °F48.2 °F77 %30.00 in5.0 miWNW (300°)9.2 mphHaze
1:53 PM55.9 °F48.9 °F77 %29.99 in5.0 miWNW (300°)8.1 mphHaze
2:33 PM53.6 °F48.2 °F82 %29.99 in5.0 miWNW (290°)9.2 mphHaze
2:53 PM53.1 °F48.0 °F83 %29.98 in5.0 miNW (310°)10.4 mphHaze
3:53 PM52.0 °F48.0 °F86 %29.99 in5.0 miWNW (290°)5.8 mphOvercast
4:51 PM51.8 °F48.2 °F88 %29.99 in4.0 miCalmOvercast
4:53 PM52.0 °F48.0 °F86 %29.99 in4.0 miCalmOvercast
5:01 PM51.8 °F48.2 °F88 %29.99 in4.0 miCalmOvercast
5:53 PM51.1 °F48.0 °F89 %30.01 in5.0 miWNW (290°)4.6 mphOvercast
6:05 PM50.0 °F48.2 °F94 %30.01 in5.0 miWest (280°)8.1 mphOvercast
6:53 PM48.9 °F48.0 °F97 %30.03 in3.0 miNW (320°)5.8 mphOvercast
7:14 PM48.2 °F48.2 °F100 %30.03 in3.0 miWNW (300°)3.5 mphOvercast
7:32 PM48.2 °F48.2 °F100 %30.03 in2.5 miCalmOvercast
7:53 PM48.9 °F48.0 °F97 %30.02 in2.0 miCalmOvercast
8:26 PM50.0 °F48.2 °F94 %30.02 in2.5 miCalmOvercast
8:53 PM48.9 °F48.0 °F97 %30.02 in2.0 miCalmOvercast
9:26 PM50.0 °F48.2 °F94 %30.02 in3.0 miCalmOvercast
9:37 PM48.2 °F48.2 °F100 %30.02 in3.0 miWNW (300°)3.5 mphOvercast
9:50 PM48.2 °F46.4 °F93 %30.03 in2.5 miNW (310°)4.6 mphOvercast
9:53 PM48.9 °F46.9 °F93 %30.02 in2.5 miNW (310°)4.6 mphOvercast
10:14 PM48.2 °F46.4 °F93 %30.03 in3.0 miNW (310°)9.2 mphOvercast
10:53 PM48.9 °F46.9 °F93 %30.02 in3.0 miWNW (300°)6.9 mphOvercast
11:53 PM48.9 °F46.9 °F93 %30.01 in4.0 miCalmOvercast
Hourly data recorded from KRNM, located miles away from Julian, California







STORIES FROM OUR PARTNERS